Time,TemperatureF,DewpointF,PressureIn,WindDirection,WindDirectionDegrees,WindSpeedMPH,WindSpeedGustMPH,Humidity,HourlyPrecipIn,Conditions,Clouds,dailyrainin,SoftwareType,DateUTC
2013-02-03 00:00:00,23.2,18.5,30.04,NW,310,0.0,1.0,82,0.00,,---,0.00,VWS V14.01,2013-02-03 05:00:00,
2013-02-03 00:02:00,23.3,18.6,30.04,NW,310,0.0,0.0,82,0.00,,---,0.00,VWS V14.01,2013-02-03 05:02:00,
2013-02-03 00:03:00,23.3,18.6,30.04,NW,310,0.0,0.0,82,0.00,,---,0.00,VWS V14.01,2013-02-03 05:03:00,
2013-02-03 00:08:00,23.3,18.6,30.04,NW,310,0.0,1.0,82,0.00,,---,0.00,VWS V14.01,2013-02-03 05:08:00,
2013-02-03 00:13:00,23.3,18.6,30.04,NW,310,0.0,2.0,82,0.00,,---,0.00,VWS V14.01,2013-02-03 05:13:00,
2013-02-03 00:15:00,23.5,19.1,30.01,NW,310,0.0,1.0,83,0.00,,---,0.00,VWS V14.01,2013-02-03 05:15:00,
2013-02-03 00:18:00,23.3,18.6,30.03,NW,310,0.0,0.0,82,0.00,,---,0.00,VWS V14.01,2013-02-03 05:18:00,
2013-02-03 00:23:00,23.3,18.6,30.03,NW,310,0.0,0.0,82,0.00,,---,0.00,VWS V14.01,2013-02-03 05:23:00,
2013-02-03 00:28:00,23.3,18.6,30.03,NW,310,0.0,0.0,82,0.00,,---,0.00,VWS V14.01,2013-02-03 05:28:00,
2013-02-03 00:30:00,23.5,19.1,30.00,NW,310,0.0,0.0,83,0.00,,---,0.00,VWS V14.01,2013-02-03 05:30:00,
2013-02-03 00:33:00,23.3,18.6,30.03,NW,310,0.0,0.0,82,0.00,,---,0.00,VWS V14.01,2013-02-03 05:33:00,
2013-02-03 00:38:00,23.3,18.6,30.02,NW,310,0.0,0.0,82,0.00,,---,0.00,VWS V14.01,2013-02-03 05:38:00,
2013-02-03 00:43:00,23.4,18.7,30.02,NW,310,0.0,0.0,82,0.00,,---,0.00,VWS V14.01,2013-02-03 05:43:00,
2013-02-03 00:45:00,23.4,19.0,30.00,NW,310,0.0,2.0,83,0.00,,---,0.00,VWS V14.01,2013-02-03 05:45:00,
2013-02-03 00:48:00,23.4,18.7,30.02,NW,310,0.0,0.0,82,0.00,,---,0.00,VWS V14.01,2013-02-03 05:48:00,
2013-02-03 00:53:00,23.4,19.0,30.02,NW,310,0.0,0.0,83,0.00,,---,0.00,VWS V14.01,2013-02-03 05:53:00,
2013-02-03 00:58:00,23.5,19.1,30.02,NW,310,0.0,0.0,83,0.00,,---,0.00,VWS V14.01,2013-02-03 05:58:00,
2013-02-03 01:00:00,23.4,19.0,30.00,NW,310,0.0,0.0,83,0.00,,---,0.00,VWS V14.01,2013-02-03 06:00:00,
2013-02-03 01:03:00,23.5,19.1,30.01,NW,310,0.0,0.0,83,0.00,,---,0.00,VWS V14.01,2013-02-03 06:03:00,
2013-02-03 01:09:00,23.5,19.1,30.01,NW,310,0.0,0.0,83,0.00,,---,0.00,VWS V14.01,2013-02-03 06:09:00,
2013-02-03 01:14:00,23.5,19.1,30.01,NW,310,0.0,1.0,83,0.00,,---,0.00,VWS V14.01,2013-02-03 06:14:00,
2013-02-03 01:15:00,23.4,19.0,29.99,NW,310,0.0,0.0,83,0.00,,---,0.00,VWS V14.01,2013-02-03 06:15:00,
2013-02-03 01:19:00,23.5,19.1,30.01,NW,310,0.0,0.0,83,0.00,,---,0.00,VWS V14.01,2013-02-03 06:19:00,
2013-02-03 01:24:00,23.5,19.1,30.01,NW,310,0.0,0.0,83,0.00,,---,0.00,VWS V14.01,2013-02-03 06:24:00,
2013-02-03 01:29:00,23.5,19.1,30.00,NW,310,0.0,0.0,83,0.00,,---,0.00,VWS V14.01,2013-02-03 06:29:00,
2013-02-03 01:30:00,23.5,19.1,29.98,NW,310,0.0,1.0,83,0.00,,---,0.00,VWS V14.01,2013-02-03 06:30:00,
2013-02-03 01:34:00,23.5,19.1,30.00,NW,310,1.0,2.0,83,0.00,,---,0.00,VWS V14.01,2013-02-03 06:34:00,
2013-02-03 01:39:00,23.5,19.1,30.00,NW,310,0.0,2.0,83,0.00,,---,0.00,VWS V14.01,2013-02-03 06:39:00,
2013-02-03 01:44:00,23.5,19.1,30.00,NW,310,0.0,2.0,83,0.00,,---,0.00,VWS V14.01,2013-02-03 06:44:00,
2013-02-03 01:45:00,23.3,18.9,29.98,NW,310,0.0,0.0,83,0.00,,---,0.00,VWS V14.01,2013-02-03 06:45:00,
2013-02-03 01:49:00,23.5,19.1,30.00,NW,310,0.0,0.0,83,0.00,,---,0.00,VWS V14.01,2013-02-03 06:49:00,
2013-02-03 01:54:00,23.5,19.1,30.00,NW,310,0.0,0.0,83,0.00,,---,0.00,VWS V14.01,2013-02-03 06:54:00,
2013-02-03 01:59:00,23.4,19.0,30.00,NW,310,0.0,0.0,83,0.00,,---,0.00,VWS V14.01,2013-02-03 06:59:00,
2013-02-03 02:00:00,23.2,18.8,29.96,NW,310,0.0,1.0,83,0.00,,---,0.00,VWS V14.01,2013-02-03 07:00:00,
2013-02-03 02:04:00,23.4,19.0,30.00,NW,310,0.0,0.0,83,0.00,,---,0.00,VWS V14.01,2013-02-03 07:04:00,
2013-02-03 02:09:00,23.4,19.0,29.99,NW,310,0.0,0.0,83,0.00,,---,0.00,VWS V14.01,2013-02-03 07:09:00,
2013-02-03 02:14:00,23.5,19.1,29.99,NW,310,0.0,0.0,83,0.00,,---,0.00,VWS V14.01,2013-02-03 07:14:00,
2013-02-03 02:15:00,23.1,18.7,29.96,NW,310,0.0,2.0,83,0.00,,---,0.00,VWS V14.01,2013-02-03 07:15:00,
2013-02-03 02:19:00,23.4,19.0,29.99,NW,310,0.0,0.0,83,0.00,,---,0.00,VWS V14.01,2013-02-03 07:19:00,
2013-02-03 02:24:00,23.5,19.1,29.98,NW,310,0.0,0.0,83,0.00,,---,0.00,VWS V14.01,2013-02-03 07:24:00,
2013-02-03 02:29:00,23.5,19.1,29.98,NW,310,0.0,1.0,83,0.00,,---,0.00,VWS V14.01,2013-02-03 07:29:00,
2013-02-03 02:30:00,23.0,18.6,29.96,NW,310,0.0,2.0,83,0.00,,---,0.00,VWS V14.01,2013-02-03 07:30:00,
2013-02-03 02:34:00,23.4,19.0,29.98,NW,310,0.0,0.0,83,0.00,,---,0.00,VWS V14.01,2013-02-03 07:34:00,
2013-02-03 02:39:00,23.4,19.0,29.98,NW,310,0.0,0.0,83,0.00,,---,0.00,VWS V14.01,2013-02-03 07:39:00,
2013-02-03 02:44:00,23.3,18.9,29.98,NW,310,0.0,0.0,83,0.00,,---,0.00,VWS V14.01,2013-02-03 07:44:00,
2013-02-03 02:45:00,22.9,18.8,29.95,NW,310,1.0,2.0,84,0.00,,---,0.00,VWS V14.01,2013-02-03 07:45:00,
2013-02-03 02:49:00,23.3,18.9,29.97,NW,310,0.0,0.0,83,0.00,,---,0.00,VWS V14.01,2013-02-03 07:49:00,
2013-02-03 02:54:00,23.3,18.9,29.97,NW,310,0.0,0.0,83,0.00,,---,0.00,VWS V14.01,2013-02-03 07:54:00,
2013-02-03 02:59:00,23.2,18.8,29.97,NW,310,0.0,1.0,83,0.00,,---,0.00,VWS V14.01,2013-02-03 07:59:00,
2013-02-03 03:00:00,22.8,18.7,29.94,NW,310,0.0,1.0,84,0.00,,---,0.00,VWS V14.01,2013-02-03 08:00:00,
2013-02-03 03:04:00,23.2,18.8,29.96,NW,310,0.0,0.0,83,0.00,,---,0.00,VWS V14.01,2013-02-03 08:04:00,
2013-02-03 03:10:00,23.1,18.7,29.96,NW,310,0.0,0.0,83,0.00,,---,0.00,VWS V14.01,2013-02-03 08:10:00,
2013-02-03 03:15:00,23.1,18.7,29.96,NW,310,0.0,2.0,83,0.00,,---,0.00,VWS V14.01,2013-02-03 08:15:00,
2013-02-03 03:20:00,23.1,18.7,29.96,NW,310,0.0,0.0,83,0.00,,---,0.00,VWS V14.01,2013-02-03 08:20:00,
2013-02-03 03:25:00,23.0,18.6,29.96,NW,310,0.0,0.0,83,0.00,,---,0.00,VWS V14.01,2013-02-03 08:25:00,
2013-02-03 03:30:00,23.0,18.6,29.96,NW,310,1.0,1.0,83,0.00,,---,0.00,VWS V14.01,2013-02-03 08:30:00,
2013-02-03 03:35:00,23.0,18.9,29.95,NW,310,0.0,0.0,84,0.00,,---,0.00,VWS V14.01,2013-02-03 08:35:00,
2013-02-03 03:40:00,23.0,18.9,29.95,NW,310,0.0,1.0,84,0.00,,---,0.00,VWS V14.01,2013-02-03 08:40:00,
2013-02-03 03:45:00,22.9,18.8,29.95,NW,310,0.0,1.0,84,0.00,,---,0.00,VWS V14.01,2013-02-03 08:45:00,
2013-02-03 03:50:00,22.9,18.5,29.95,NW,310,0.0,1.0,83,0.00,,---,0.00,VWS V14.01,2013-02-03 08:50:00,
2013-02-03 03:55:00,22.9,18.8,29.95,NW,310,0.0,1.0,84,0.00,,---,0.00,VWS V14.01,2013-02-03 08:55:00,
2013-02-03 04:00:00,22.8,18.7,29.94,NW,310,0.0,1.0,84,0.00,,---,0.00,VWS V14.01,2013-02-03 09:00:00,
2013-02-03 04:05:00,22.8,18.7,29.94,NW,310,0.0,3.0,84,0.00,,---,0.00,VWS V14.01,2013-02-03 09:05:00,
2013-02-03 04:10:00,22.7,18.6,29.94,NW,310,0.0,3.0,84,0.00,,---,0.00,VWS V14.01,2013-02-03 09:10:00,
2013-02-03 04:15:00,22.7,18.6,29.94,NW,310,0.0,3.0,84,0.00,,---,0.00,VWS V14.01,2013-02-03 09:15:00,
2013-02-03 04:20:00,22.7,18.6,29.93,NW,310,0.0,2.0,84,0.00,,---,0.00,VWS V14.01,2013-02-03 09:20:00,
2013-02-03 04:25:00,22.7,18.6,29.93,NW,310,2.0,3.0,84,0.00,,---,0.00,VWS V14.01,2013-02-03 09:25:00,
2013-02-03 04:30:00,22.7,18.6,29.93,NW,310,0.0,3.0,84,0.00,,---,0.00,VWS V14.01,2013-02-03 09:30:00,
2013-02-03 04:35:00,22.7,18.6,29.93,NW,310,0.0,1.0,84,0.00,,---,0.00,VWS V14.01,2013-02-03 09:35:00,
2013-02-03 04:40:00,22.7,18.6,29.93,NW,310,2.0,3.0,84,0.00,,---,0.00,VWS V14.01,2013-02-03 09:40:00,
2013-02-03 04:45:00,22.6,18.5,29.93,NW,310,0.0,3.0,84,0.00,,---,0.00,VWS V14.01,2013-02-03 09:45:00,
2013-02-03 04:50:00,22.6,18.5,29.93,NW,310,0.0,3.0,84,0.00,,---,0.00,VWS V14.01,2013-02-03 09:50:00,
2013-02-03 04:55:00,22.6,18.5,29.93,NW,310,0.0,3.0,84,0.00,,---,0.00,VWS V14.01,2013-02-03 09:55:00,
2013-02-03 05:00:00,22.6,18.5,29.93,NW,310,2.0,3.0,84,0.00,,---,0.00,VWS V14.01,2013-02-03 10:00:00,
2013-02-03 05:05:00,22.6,18.5,29.93,NW,310,2.0,3.0,84,0.00,,---,0.00,VWS V14.01,2013-02-03 10:05:00,
2013-02-03 05:10:00,22.6,18.5,29.93,NW,310,0.0,3.0,84,0.00,,---,0.00,VWS V14.01,2013-02-03 10:10:00,
2013-02-03 05:15:00,22.6,18.5,29.93,NW,310,0.0,3.0,84,0.00,,---,0.00,VWS V14.01,2013-02-03 10:15:00,
2013-02-03 05:21:00,22.6,18.5,29.93,NE,35,0.0,4.0,84,0.00,,---,0.00,VWS V14.01,2013-02-03 10:21:00,
2013-02-03 05:26:00,22.8,18.7,29.93,NE,43,0.0,4.0,84,0.00,,---,0.00,VWS V14.01,2013-02-03 10:26:00,
2013-02-03 05:30:00,23.2,18.8,29.93,NE,38,3.0,4.0,83,0.00,,---,0.00,VWS V14.01,2013-02-03 10:30:00,
2013-02-03 05:31:00,22.8,18.7,29.93,NE,42,0.0,4.0,84,0.00,,---,0.00,VWS V14.01,2013-02-03 10:31:00,
2013-02-03 05:36:00,22.9,18.8,29.93,NE,42,0.0,3.0,84,0.00,,---,0.00,VWS V14.01,2013-02-03 10:36:00,
2013-02-03 05:41:00,22.9,18.8,29.93,NE,42,0.0,3.0,84,0.00,,---,0.00,VWS V14.01,2013-02-03 10:41:00,
2013-02-03 05:45:00,23.1,18.1,29.94,NE,38,0.0,5.0,81,0.00,,---,0.00,VWS V14.01,2013-02-03 10:45:00,
2013-02-03 05:46:00,22.9,18.8,29.93,NE,40,2.0,3.0,84,0.00,,---,0.00,VWS V14.01,2013-02-03 10:46:00,
2013-02-03 05:51:00,22.9,18.8,29.93,NE,40,0.0,3.0,84,0.00,,---,0.00,VWS V14.01,2013-02-03 10:51:00,
2013-02-03 05:56:00,23.0,18.9,29.93,NE,40,0.0,3.0,84,0.00,,---,0.00,VWS V14.01,2013-02-03 10:56:00,
2013-02-03 06:00:00,23.1,17.9,29.94,NE,37,0.0,3.0,80,0.00,,---,0.00,VWS V14.01,2013-02-03 11:00:00,
2013-02-03 06:01:00,23.0,18.9,29.93,NE,40,0.0,0.0,84,0.00,,---,0.00,VWS V14.01,2013-02-03 11:01:00,
2013-02-03 06:06:00,23.0,18.9,29.93,NE,40,0.0,2.0,84,0.00,,---,0.00,VWS V14.01,2013-02-03 11:06:00,
2013-02-03 06:11:00,23.1,19.0,29.93,NNE,33,0.0,5.0,84,0.00,,---,0.00,VWS V14.01,2013-02-03 11:11:00,
2013-02-03 06:15:00,23.1,17.6,29.95,North,355,0.0,6.0,79,0.00,,---,0.00,VWS V14.01,2013-02-03 11:15:00,
2013-02-03 06:16:00,23.1,18.7,29.93,NNE,33,0.0,0.0,83,0.00,,---,0.00,VWS V14.01,2013-02-03 11:16:00,
2013-02-03 06:21:00,23.1,18.7,29.93,North,355,0.0,4.0,83,0.00,,---,0.00,VWS V14.01,2013-02-03 11:21:00,
2013-02-03 06:26:00,23.2,18.8,29.93,NE,40,0.0,4.0,83,0.00,,---,0.00,VWS V14.01,2013-02-03 11:26:00,
2013-02-03 06:30:00,23.0,17.2,29.95,NNE,32,0.0,5.0,78,0.00,,---,0.00,VWS V14.01,2013-02-03 11:30:00,
2013-02-03 06:31:00,23.2,18.8,29.93,North,5,3.0,4.0,83,0.00,,---,0.00,VWS V14.01,2013-02-03 11:31:00,
2013-02-03 06:36:00,23.2,18.5,29.93,NNE,13,0.0,5.0,82,0.00,,---,0.00,VWS V14.01,2013-02-03 11:36:00,
2013-02-03 06:41:00,23.1,18.4,29.93,NE,54,0.0,5.0,82,0.00,,---,0.00,VWS V14.01,2013-02-03 11:41:00,
2013-02-03 06:45:00,23.2,17.1,29.94,NNE,32,0.0,4.0,77,0.00,,---,0.00,VWS V14.01,2013-02-03 11:45:00,
2013-02-03 06:46:00,23.1,18.1,29.94,NE,38,0.0,0.0,81,0.00,,---,0.00,VWS V14.01,2013-02-03 11:46:00,
2013-02-03 06:51:00,23.2,18.2,29.94,NE,38,2.0,3.0,81,0.00,,---,0.00,VWS V14.01,2013-02-03 11:51:00,
2013-02-03 06:56:00,23.1,18.1,29.94,NE,38,0.0,3.0,81,0.00,,---,0.00,VWS V14.01,2013-02-03 11:56:00,
2013-02-03 07:00:00,23.2,17.1,29.94,NNE,32,0.0,2.0,77,0.00,,---,0.00,VWS V14.01,2013-02-03 12:00:00,
2013-02-03 07:01:00,23.1,17.9,29.94,NE,37,2.0,3.0,80,0.00,,---,0.00,VWS V14.01,2013-02-03 12:01:00,
2013-02-03 07:07:00,23.2,18.0,29.94,NNE,32,1.0,4.0,80,0.00,,---,0.00,VWS V14.01,2013-02-03 12:07:00,
2013-02-03 07:12:00,23.2,17.7,29.94,North,350,5.0,5.0,79,0.00,,---,0.00,VWS V14.01,2013-02-03 12:12:00,
2013-02-03 07:15:00,23.1,17.0,29.94,North,350,3.0,3.0,77,0.00,,---,0.00,VWS V14.01,2013-02-03 12:15:00,
2013-02-03 07:17:00,23.1,17.6,29.95,North,355,2.0,2.0,79,0.00,,---,0.00,VWS V14.01,2013-02-03 12:17:00,
2013-02-03 07:22:00,23.1,17.3,29.95,NNW,347,3.0,4.0,78,0.00,,---,0.00,VWS V14.01,2013-02-03 12:22:00,
2013-02-03 07:27:00,23.1,17.3,29.95,NNE,33,0.0,5.0,78,0.00,,---,0.00,VWS V14.01,2013-02-03 12:27:00,
2013-02-03 07:30:00,23.1,17.0,29.94,North,5,2.0,5.0,77,0.00,,---,0.00,VWS V14.01,2013-02-03 12:30:00,
2013-02-03 07:32:00,23.1,17.3,29.95,NNE,32,0.0,0.0,78,0.00,,---,0.00,VWS V14.01,2013-02-03 12:32:00,
2013-02-03 07:37:00,23.1,17.0,29.94,NNE,32,0.0,2.0,77,0.00,,---,0.00,VWS V14.01,2013-02-03 12:37:00,
2013-02-03 07:42:00,23.1,17.0,29.94,NNE,32,0.0,3.0,77,0.00,,---,0.00,VWS V14.01,2013-02-03 12:42:00,
2013-02-03 07:45:00,23.3,17.2,29.94,NNW,348,0.0,4.0,77,0.00,,---,0.00,VWS V14.01,2013-02-03 12:45:00,
2013-02-03 07:47:00,23.2,17.1,29.94,NNE,32,0.0,0.0,77,0.00,,---,0.00,VWS V14.01,2013-02-03 12:47:00,
2013-02-03 07:52:00,23.3,17.2,29.94,NNE,32,0.0,0.0,77,0.00,,---,0.00,VWS V14.01,2013-02-03 12:52:00,
2013-02-03 07:57:00,23.2,17.1,29.94,NNE,32,2.0,2.0,77,0.00,,---,0.00,VWS V14.01,2013-02-03 12:57:00,
2013-02-03 08:00:00,23.5,17.1,29.93,NNE,13,2.0,6.0,76,0.00,,---,0.00,VWS V14.01,2013-02-03 13:00:00,
2013-02-03 08:02:00,23.2,17.1,29.94,NNE,32,0.0,2.0,77,0.00,,---,0.00,VWS V14.01,2013-02-03 13:02:00,
2013-02-03 08:07:00,23.2,17.1,29.94,NNE,32,1.0,3.0,77,0.00,,---,0.00,VWS V14.01,2013-02-03 13:07:00,
2013-02-03 08:12:00,23.1,17.0,29.94,NNE,32,2.0,3.0,77,0.00,,---,0.00,VWS V14.01,2013-02-03 13:12:00,
2013-02-03 08:15:00,23.8,17.4,29.93,NNW,338,1.0,5.0,76,0.00,,---,0.00,VWS V14.01,2013-02-03 13:15:00,
2013-02-03 08:17:00,23.1,17.0,29.94,North,355,1.0,4.0,77,0.00,,---,0.00,VWS V14.01,2013-02-03 13:17:00,
2013-02-03 08:22:00,23.1,17.0,29.94,North,355,4.0,4.0,77,0.00,,---,0.00,VWS V14.01,2013-02-03 13:22:00,
2013-02-03 08:27:00,23.1,17.0,29.94,North,5,2.0,5.0,77,0.00,,---,0.00,VWS V14.01,2013-02-03 13:27:00,
2013-02-03 08:30:00,23.9,17.1,29.93,NNW,327,3.0,5.0,75,0.00,,---,0.00,VWS V14.01,2013-02-03 13:30:00,
2013-02-03 08:33:00,23.1,17.0,29.94,North,5,3.0,3.0,77,0.00,,---,0.00,VWS V14.01,2013-02-03 13:33:00,
2013-02-03 08:38:00,23.2,17.1,29.94,North,350,2.0,4.0,77,0.00,,---,0.00,VWS V14.01,2013-02-03 13:38:00,
2013-02-03 08:43:00,23.3,17.2,29.94,North,350,2.0,4.0,77,0.00,,---,0.00,VWS V14.01,2013-02-03 13:43:00,
2013-02-03 08:45:00,24.4,17.3,29.92,NE,45,0.0,4.0,74,0.00,,---,0.00,VWS V14.01,2013-02-03 13:45:00,
2013-02-03 08:48:00,23.3,17.2,29.94,NNW,348,1.0,3.0,77,0.00,,---,0.00,VWS V14.01,2013-02-03 13:48:00,
2013-02-03 08:53:00,23.3,16.9,29.94,NNE,16,2.0,6.0,76,0.00,,---,0.00,VWS V14.01,2013-02-03 13:53:00,
2013-02-03 08:58:00,23.4,17.0,29.93,NNE,13,0.0,6.0,76,0.00,,---,0.00,VWS V14.01,2013-02-03 13:58:00,
2013-02-03 09:00:00,24.8,17.7,29.92,NE,36,2.0,7.0,74,0.00,,---,0.00,VWS V14.01,2013-02-03 14:00:00,
2013-02-03 09:03:00,23.6,17.2,29.93,North,5,3.0,4.0,76,0.00,,---,0.00,VWS V14.01,2013-02-03 14:03:00,
2013-02-03 09:08:00,23.7,17.3,29.93,North,350,5.0,5.0,76,0.00,,---,0.00,VWS V14.01,2013-02-03 14:08:00,
2013-02-03 09:13:00,23.7,17.3,29.93,NNW,338,1.0,5.0,76,0.00,,---,0.00,VWS V14.01,2013-02-03 14:13:00,
2013-02-03 09:15:00,24.7,17.9,29.92,ENE,62,4.0,8.0,75,0.00,,---,0.00,VWS V14.01,2013-02-03 14:15:00,
2013-02-03 09:18:00,23.8,17.4,29.93,NE,51,2.0,4.0,76,0.00,,---,0.00,VWS V14.01,2013-02-03 14:18:00,
2013-02-03 09:23:00,23.8,17.4,29.93,NE,45,4.0,5.0,76,0.00,,---,0.00,VWS V14.01,2013-02-03 14:23:00,
2013-02-03 09:28:00,23.9,17.1,29.93,North,10,3.0,5.0,75,0.00,,---,0.00,VWS V14.01,2013-02-03 14:28:00,
2013-02-03 09:30:00,24.8,18.0,29.92,North,5,2.0,8.0,75,0.00,,---,0.00,VWS V14.01,2013-02-03 14:30:00,
2013-02-03 09:33:00,24.0,17.2,29.93,NNW,327,0.0,3.0,75,0.00,,---,0.00,VWS V14.01,2013-02-03 14:33:00,
2013-02-03 09:38:00,24.1,17.3,29.93,NE,38,3.0,4.0,75,0.00,,---,0.00,VWS V14.01,2013-02-03 14:38:00,
2013-02-03 09:43:00,24.3,17.5,29.93,NE,45,0.0,4.0,75,0.00,,---,0.00,VWS V14.01,2013-02-03 14:43:00,
2013-02-03 09:45:00,24.8,18.0,29.92,NE,36,3.0,7.0,75,0.00,,---,0.00,VWS V14.01,2013-02-03 14:45:00,
2013-02-03 09:48:00,24.6,17.8,29.92,North,11,3.0,6.0,75,0.00,,---,0.00,VWS V14.01,2013-02-03 14:48:00,
2013-02-03 09:54:00,24.5,17.4,29.92,NE,35,2.0,7.0,74,0.00,,---,0.00,VWS V14.01,2013-02-03 14:54:00,
2013-02-03 09:59:00,24.7,17.6,29.92,NE,36,0.0,7.0,74,0.00,,---,0.00,VWS V14.01,2013-02-03 14:59:00,
2013-02-03 10:00:00,25.1,18.0,29.91,NE,38,2.0,5.0,74,0.00,,---,0.00,VWS V14.01,2013-02-03 15:00:00,
2013-02-03 10:04:00,24.7,17.6,29.92,NNW,338,2.0,7.0,74,0.00,,---,0.00,VWS V14.01,2013-02-03 15:04:00,
2013-02-03 10:09:00,24.7,17.6,29.92,NE,37,3.0,8.0,74,0.00,,---,0.00,VWS V14.01,2013-02-03 15:09:00,
2013-02-03 10:14:00,24.7,17.6,29.92,NE,34,3.0,8.0,74,0.00,,---,0.00,VWS V14.01,2013-02-03 15:14:00,
2013-02-03 10:15:00,25.4,18.3,29.90,NNE,26,1.0,6.0,74,0.00,,---,0.00,VWS V14.01,2013-02-03 15:15:00,
2013-02-03 10:19:00,24.7,17.9,29.92,NE,53,5.0,8.0,75,0.00,,---,0.00,VWS V14.01,2013-02-03 15:19:00,
2013-02-03 10:24:00,24.7,17.9,29.92,NE,51,3.0,8.0,75,0.00,,---,0.00,VWS V14.01,2013-02-03 15:24:00,
2013-02-03 10:29:00,24.8,18.0,29.92,North,355,2.0,8.0,75,0.00,,---,0.00,VWS V14.01,2013-02-03 15:29:00,
2013-02-03 10:30:00,25.7,18.3,29.89,ENE,58,0.0,8.0,73,0.00,,---,0.00,VWS V14.01,2013-02-03 15:30:00,
2013-02-03 10:34:00,24.8,18.0,29.92,NNW,333,4.0,4.0,75,0.00,,---,0.00,VWS V14.01,2013-02-03 15:34:00,
2013-02-03 10:39:00,24.8,18.0,29.92,NE,35,2.0,7.0,75,0.00,,---,0.00,VWS V14.01,2013-02-03 15:39:00,
2013-02-03 10:44:00,24.8,18.0,29.92,NE,36,2.0,7.0,75,0.00,,---,0.00,VWS V14.01,2013-02-03 15:44:00,
2013-02-03 10:45:00,26.2,18.4,29.87,North,350,3.0,7.0,72,0.00,,---,0.00,VWS V14.01,2013-02-03 15:45:00,
2013-02-03 10:49:00,24.9,18.1,29.91,NE,38,3.0,5.0,75,0.00,,---,0.00,VWS V14.01,2013-02-03 15:49:00,
2013-02-03 10:54:00,25.0,18.2,29.91,NE,38,1.0,5.0,75,0.00,,---,0.00,VWS V14.01,2013-02-03 15:54:00,
2013-02-03 10:59:00,25.1,18.0,29.91,NE,38,3.0,5.0,74,0.00,,---,0.00,VWS V14.01,2013-02-03 15:59:00,
2013-02-03 11:00:00,26.7,18.9,29.86,NNW,327,2.0,5.0,72,0.01,,---,0.01,VWS V14.01,2013-02-03 16:00:00,
2013-02-03 11:04:00,25.2,18.1,29.91,NE,38,3.0,4.0,74,0.00,,---,0.00,VWS V14.01,2013-02-03 16:04:00,
2013-02-03 11:09:00,25.4,18.3,29.90,NNW,333,3.0,5.0,74,0.00,,---,0.00,VWS V14.01,2013-02-03 16:09:00,
2013-02-03 11:14:00,25.4,18.3,29.90,NNE,26,4.0,6.0,74,0.00,,---,0.00,VWS V14.01,2013-02-03 16:14:00,
2013-02-03 11:15:00,26.5,18.7,29.85,NNW,332,3.0,6.0,72,0.01,,---,0.01,VWS V14.01,2013-02-03 16:15:00,
2013-02-03 11:19:00,25.4,18.3,29.90,NNE,26,5.0,6.0,74,0.00,,---,0.00,VWS V14.01,2013-02-03 16:19:00,
2013-02-03 11:24:00,25.5,18.4,29.89,North,360,2.0,6.0,74,0.00,,---,0.00,VWS V14.01,2013-02-03 16:24:00,
2013-02-03 11:29:00,25.7,18.3,29.89,ENE,58,1.0,8.0,73,0.00,,---,0.00,VWS V14.01,2013-02-03 16:29:00,
2013-02-03 11:30:00,26.6,18.5,29.85,NNW,342,0.0,5.0,71,0.01,,---,0.01,VWS V14.01,2013-02-03 16:30:00,
2013-02-03 11:34:00,25.8,18.4,29.88,ENE,57,3.0,7.0,73,0.00,,---,0.00,VWS V14.01,2013-02-03 16:34:00,
2013-02-03 11:39:00,26.0,18.5,29.88,ENE,57,0.0,7.0,73,0.00,,---,0.00,VWS V14.01,2013-02-03 16:39:00,
2013-02-03 11:44:00,26.2,18.4,29.87,North,355,4.0,7.0,72,0.00,,---,0.00,VWS V14.01,2013-02-03 16:44:00,
2013-02-03 11:45:00,27.2,19.1,29.84,North,360,0.0,6.0,71,0.01,,---,0.01,VWS V14.01,2013-02-03 16:45:00,
2013-02-03 11:50:00,26.3,18.5,29.87,North,5,2.0,5.0,72,0.00,,---,0.00,VWS V14.01,2013-02-03 16:50:00,
2013-02-03 11:55:00,26.7,18.9,29.87,North,355,2.0,5.0,72,0.01,,---,0.01,VWS V14.01,2013-02-03 16:55:00,
2013-02-03 12:00:00,26.7,18.9,29.86,North,355,5.0,5.0,72,0.01,,---,0.01,VWS V14.01,2013-02-03 17:00:00,
2013-02-03 12:05:00,26.5,18.7,29.86,NNW,348,2.0,5.0,72,0.01,,---,0.01,VWS V14.01,2013-02-03 17:05:00,
2013-02-03 12:10:00,26.4,18.6,29.86,NNW,332,0.0,5.0,72,0.01,,---,0.01,VWS V14.01,2013-02-03 17:10:00,
2013-02-03 12:15:00,26.5,18.7,29.86,NNW,342,5.0,6.0,72,0.01,,---,0.01,VWS V14.01,2013-02-03 17:15:00,
2013-02-03 12:20:00,26.5,18.4,29.85,West,269,4.0,5.0,71,0.01,,---,0.01,VWS V14.01,2013-02-03 17:20:00,
2013-02-03 12:25:00,26.6,18.8,29.85,NW,320,4.0,5.0,72,0.01,,---,0.01,VWS V14.01,2013-02-03 17:25:00,
2013-02-03 12:30:00,26.6,18.5,29.85,NNW,341,1.0,5.0,71,0.01,,---,0.01,VWS V14.01,2013-02-03 17:30:00,
2013-02-03 12:35:00,26.8,18.7,29.85,NNW,330,0.0,6.0,71,0.01,,---,0.01,VWS V14.01,2013-02-03 17:35:00,
2013-02-03 12:40:00,26.8,18.7,29.84,NNW,330,1.0,6.0,71,0.01,,---,0.01,VWS V14.01,2013-02-03 17:40:00,
2013-02-03 12:45:00,27.1,19.0,29.84,North,360,1.0,6.0,71,0.01,,---,0.01,VWS V14.01,2013-02-03 17:45:00,
2013-02-03 12:50:00,27.3,19.1,29.84,NNW,348,0.0,5.0,71,0.01,,---,0.01,VWS V14.01,2013-02-03 17:50:00,
2013-02-03 12:55:00,27.2,19.1,29.84,North,10,5.0,8.0,71,0.01,,---,0.01,VWS V14.01,2013-02-03 17:55:00,
2013-02-03 13:00:00,27.2,19.1,29.83,North,355,0.0,8.0,71,0.01,,---,0.01,VWS V14.01,2013-02-03 18:00:00,
2013-02-03 13:05:00,27.5,19.4,29.83,NNW,344,4.0,5.0,71,0.00,,---,0.01,VWS V14.01,2013-02-03 18:05:00,
2013-02-03 13:10:00,27.5,19.0,29.83,West,272,4.0,7.0,70,0.00,,---,0.01,VWS V14.01,2013-02-03 18:10:00,
2013-02-03 13:15:00,27.4,18.6,29.82,West,261,0.0,7.0,69,0.00,,---,0.01,VWS V14.01,2013-02-03 18:15:00,
2013-02-03 13:20:00,27.7,18.9,29.82,West,261,2.0,3.0,69,0.00,,---,0.01,VWS V14.01,2013-02-03 18:20:00,
2013-02-03 13:25:00,28.0,19.2,29.82,NW,319,3.0,7.0,69,0.00,,---,0.01,VWS V14.01,2013-02-03 18:25:00,
2013-02-03 13:30:00,28.0,18.8,29.82,West,275,1.0,8.0,68,0.01,,---,0.02,VWS V14.01,2013-02-03 18:30:00,
2013-02-03 13:35:00,27.9,18.7,29.82,SSW,203,2.0,6.0,68,0.01,,---,0.02,VWS V14.01,2013-02-03 18:35:00,
2013-02-03 13:41:00,27.9,18.7,29.81,West,277,4.0,7.0,68,0.01,,---,0.02,VWS V14.01,2013-02-03 18:41:00,
2013-02-03 13:45:00,29.9,19.9,29.79,NNW,328,4.0,9.0,66,0.00,,---,0.02,VWS V14.01,2013-02-03 18:45:00,
2013-02-03 13:46:00,28.1,18.9,29.81,West,275,3.0,7.0,68,0.01,,---,0.02,VWS V14.01,2013-02-03 18:46:00,
2013-02-03 13:51:00,28.3,19.1,29.81,WSW,250,6.0,9.0,68,0.01,,---,0.02,VWS V14.01,2013-02-03 18:51:00,
2013-02-03 13:56:00,28.4,18.9,29.81,WSW,254,7.0,10.0,67,0.01,,---,0.02,VWS V14.01,2013-02-03 18:56:00,
2013-02-03 14:00:00,29.7,18.7,29.79,NNW,333,6.0,13.0,63,0.00,,---,0.02,VWS V14.01,2013-02-03 19:00:00,
2013-02-03 14:01:00,28.3,19.1,29.81,WSW,254,3.0,10.0,68,0.01,,---,0.02,VWS V14.01,2013-02-03 19:01:00,
2013-02-03 14:06:00,28.3,18.8,29.80,WNW,298,5.0,10.0,67,0.01,,---,0.02,VWS V14.01,2013-02-03 19:06:00,
2013-02-03 14:11:00,28.7,19.1,29.80,SW,236,4.0,10.0,67,0.01,,---,0.02,VWS V14.01,2013-02-03 19:11:00,
2013-02-03 14:15:00,29.9,18.5,29.79,WNW,291,7.0,13.0,62,0.00,,---,0.02,VWS V14.01,2013-02-03 19:15:00,
2013-02-03 14:16:00,28.9,19.3,29.80,WNW,285,7.0,10.0,67,0.01,,---,0.02,VWS V14.01,2013-02-03 19:16:00,
2013-02-03 14:21:00,28.6,18.7,29.80,NW,317,6.0,11.0,66,0.01,,---,0.02,VWS V14.01,2013-02-03 19:21:00,
2013-02-03 14:26:00,28.8,18.9,29.80,WSW,254,9.0,11.0,66,0.01,,---,0.02,VWS V14.01,2013-02-03 19:26:00,
2013-02-03 14:30:00,29.4,18.4,29.80,WSW,255,11.0,15.0,63,0.00,,---,0.02,VWS V14.01,2013-02-03 19:30:00,
2013-02-03 14:31:00,29.0,18.7,29.79,WSW,249,6.0,7.0,65,0.00,,---,0.02,VWS V14.01,2013-02-03 19:31:00,
2013-02-03 14:36:00,29.4,19.1,29.79,West,279,5.0,9.0,65,0.00,,---,0.02,VWS V14.01,2013-02-03 19:36:00,
2013-02-03 14:41:00,29.6,18.9,29.79,NW,320,3.0,9.0,64,0.00,,---,0.02,VWS V14.01,2013-02-03 19:41:00,
2013-02-03 14:45:00,29.3,17.9,29.79,WSW,256,4.0,14.0,62,0.00,,---,0.02,VWS V14.01,2013-02-03 19:45:00,
2013-02-03 14:46:00,30.0,20.0,29.79,WNW,298,5.0,8.0,66,0.00,,---,0.02,VWS V14.01,2013-02-03 19:46:00,
2013-02-03 14:51:00,29.9,18.9,29.79,West,275,11.0,13.0,63,0.00,,---,0.02,VWS V14.01,2013-02-03 19:51:00,
2013-02-03 14:56:00,29.8,19.1,29.79,West,266,5.0,13.0,64,0.00,,---,0.02,VWS V14.01,2013-02-03 19:56:00,
2013-02-03 15:00:00,29.6,17.8,29.80,West,269,5.0,14.0,61,0.00,,---,0.02,VWS V14.01,2013-02-03 20:00:00,
2013-02-03 15:01:00,29.7,18.7,29.79,NW,319,8.0,9.0,63,0.00,,---,0.02,VWS V14.01,2013-02-03 20:01:00,
2013-02-03 15:06:00,29.9,19.2,29.79,West,271,6.0,11.0,64,0.00,,---,0.02,VWS V14.01,2013-02-03 20:06:00,
2013-02-03 15:11:00,30.0,19.0,29.79,WNW,297,7.0,12.0,63,0.00,,---,0.02,VWS V14.01,2013-02-03 20:11:00,
2013-02-03 15:15:00,29.6,17.4,29.79,NW,325,9.0,11.0,60,0.00,,---,0.02,VWS V14.01,2013-02-03 20:15:00,
2013-02-03 15:16:00,29.8,18.4,29.79,NW,304,7.0,8.0,62,0.00,,---,0.02,VWS V14.01,2013-02-03 20:16:00,
2013-02-03 15:21:00,29.6,18.6,29.79,NW,309,12.0,12.0,63,0.00,,---,0.02,VWS V14.01,2013-02-03 20:21:00,
2013-02-03 15:26:00,29.5,18.5,29.79,West,262,15.0,15.0,63,0.00,,---,0.02,VWS V14.01,2013-02-03 20:26:00,
2013-02-03 15:30:00,28.9,17.2,29.79,SSW,209,5.0,13.0,61,0.00,,---,0.02,VWS V14.01,2013-02-03 20:30:00,
2013-02-03 15:31:00,29.4,18.4,29.79,West,264,6.0,12.0,63,0.00,,---,0.02,VWS V14.01,2013-02-03 20:31:00,
2013-02-03 15:37:00,29.5,18.5,29.79,WNW,294,12.0,12.0,63,0.00,,---,0.02,VWS V14.01,2013-02-03 20:37:00,
2013-02-03 15:42:00,29.4,18.4,29.79,WNW,284,8.0,14.0,63,0.00,,---,0.02,VWS V14.01,2013-02-03 20:42:00,
2013-02-03 15:45:00,28.7,17.0,29.79,WNW,299,4.0,11.0,61,0.00,,---,0.02,VWS V14.01,2013-02-03 20:45:00,
2013-02-03 15:47:00,29.4,18.4,29.79,West,279,12.0,12.0,63,0.00,,---,0.02,VWS V14.01,2013-02-03 20:47:00,
2013-02-03 15:52:00,29.4,17.6,29.79,WSW,246,5.0,14.0,61,0.00,,---,0.02,VWS V14.01,2013-02-03 20:52:00,
2013-02-03 15:57:00,29.7,17.9,29.79,WNW,297,5.0,14.0,61,0.00,,---,0.02,VWS V14.01,2013-02-03 20:57:00,
2013-02-03 16:00:00,28.5,16.8,29.79,WNW,283,4.0,9.0,61,0.00,,---,0.02,VWS V14.01,2013-02-03 21:00:00,
2013-02-03 16:02:00,29.7,17.9,29.79,WSW,258,9.0,9.0,61,0.00,,---,0.02,VWS V14.01,2013-02-03 21:02:00,
2013-02-03 16:07:00,29.6,17.8,29.79,West,271,2.0,10.0,61,0.00,,---,0.02,VWS V14.01,2013-02-03 21:07:00,
2013-02-03 16:12:00,29.6,17.4,29.79,West,280,4.0,11.0,60,0.00,,---,0.02,VWS V14.01,2013-02-03 21:12:00,
2013-02-03 16:15:00,28.3,16.6,29.79,NW,313,5.0,8.0,61,0.00,,---,0.02,VWS V14.01,2013-02-03 21:15:00,
2013-02-03 16:17:00,29.6,17.4,29.79,WNW,300,10.0,11.0,60,0.00,,---,0.02,VWS V14.01,2013-02-03 21:17:00,
2013-02-03 16:22:00,29.6,17.4,29.79,West,279,9.0,11.0,60,0.00,,---,0.02,VWS V14.01,2013-02-03 21:22:00,
2013-02-03 16:27:00,29.2,17.1,29.79,WNW,300,8.0,13.0,60,0.00,,---,0.02,VWS V14.01,2013-02-03 21:27:00,
2013-02-03 16:30:00,27.9,16.2,29.80,NW,315,5.0,9.0,61,0.00,,---,0.02,VWS V14.01,2013-02-03 21:30:00,
2013-02-03 16:32:00,28.9,16.8,29.79,West,277,5.0,10.0,60,0.00,,---,0.02,VWS V14.01,2013-02-03 21:32:00,
2013-02-03 16:37:00,28.8,16.7,29.79,West,275,11.0,11.0,60,0.00,,---,0.02,VWS V14.01,2013-02-03 21:37:00,
2013-02-03 16:42:00,28.7,17.0,29.79,West,277,7.0,11.0,61,0.00,,---,0.02,VWS V14.01,2013-02-03 21:42:00,
2013-02-03 16:45:00,27.6,15.9,29.80,NW,306,4.0,10.0,61,0.00,,---,0.02,VWS V14.01,2013-02-03 21:45:00,
2013-02-03 16:47:00,28.6,16.9,29.79,WNW,292,9.0,9.0,61,0.00,,---,0.02,VWS V14.01,2013-02-03 21:47:00,
2013-02-03 16:52:00,28.6,17.2,29.79,WNW,282,5.0,9.0,62,0.00,,---,0.02,VWS V14.01,2013-02-03 21:52:00,
2013-02-03 16:57:00,28.5,17.1,29.79,WSW,256,5.0,9.0,62,0.00,,---,0.02,VWS V14.01,2013-02-03 21:57:00,
2013-02-03 17:00:00,27.3,16.0,29.80,WNW,302,6.0,10.0,62,0.00,,---,0.02,VWS V14.01,2013-02-03 22:00:00,
2013-02-03 17:03:00,28.5,17.1,29.79,WNW,283,4.0,5.0,62,0.00,,---,0.02,VWS V14.01,2013-02-03 22:03:00,
2013-02-03 17:08:00,28.5,17.1,29.79,WNW,296,3.0,6.0,62,0.00,,---,0.02,VWS V14.01,2013-02-03 22:08:00,
2013-02-03 17:13:00,28.4,17.1,29.79,WSW,252,5.0,7.0,62,0.00,,---,0.02,VWS V14.01,2013-02-03 22:13:00,
2013-02-03 17:15:00,27.0,15.7,29.80,WNW,289,0.0,6.0,62,0.00,,---,0.02,VWS V14.01,2013-02-03 22:15:00,
2013-02-03 17:18:00,28.3,16.6,29.79,WNW,286,3.0,6.0,61,0.00,,---,0.02,VWS V14.01,2013-02-03 22:18:00,
2013-02-03 17:23:00,28.1,16.4,29.79,West,274,5.0,9.0,61,0.00,,---,0.02,VWS V14.01,2013-02-03 22:23:00,
2013-02-03 17:28:00,28.0,16.3,29.80,NW,306,4.0,9.0,61,0.00,,---,0.02,VWS V14.01,2013-02-03 22:28:00,
2013-02-03 17:30:00,26.7,15.8,29.80,WNW,289,0.0,4.0,63,0.00,,---,0.02,VWS V14.01,2013-02-03 22:30:00,
2013-02-03 17:33:00,27.9,16.2,29.80,WNW,284,5.0,9.0,61,0.00,,---,0.02,VWS V14.01,2013-02-03 22:33:00,
2013-02-03 17:38:00,27.8,16.1,29.80,NW,325,6.0,10.0,61,0.00,,---,0.02,VWS V14.01,2013-02-03 22:38:00,
2013-02-03 17:43:00,27.7,16.0,29.80,NW,306,3.0,10.0,61,0.00,,---,0.02,VWS V14.01,2013-02-03 22:43:00,
2013-02-03 17:45:00,26.2,15.7,29.81,WNW,289,0.0,2.0,64,0.00,,---,0.02,VWS V14.01,2013-02-03 22:45:00,
2013-02-03 17:48:00,27.5,15.8,29.80,WNW,300,3.0,7.0,61,0.00,,---,0.02,VWS V14.01,2013-02-03 22:48:00,
2013-02-03 17:53:00,27.4,16.1,29.80,WNW,293,4.0,10.0,62,0.00,,---,0.02,VWS V14.01,2013-02-03 22:53:00,
2013-02-03 17:58:00,27.3,16.0,29.80,WNW,292,3.0,10.0,62,0.00,,---,0.02,VWS V14.01,2013-02-03 22:58:00,
2013-02-03 18:00:00,25.8,15.7,29.81,WNW,289,0.0,2.0,65,0.00,,---,0.02,VWS V14.01,2013-02-03 23:00:00,
2013-02-03 18:03:00,27.2,15.9,29.80,WNW,293,2.0,6.0,62,0.00,,---,0.02,VWS V14.01,2013-02-03 23:03:00,
2013-02-03 18:08:00,27.2,15.9,29.80,WNW,288,2.0,6.0,62,0.00,,---,0.02,VWS V14.01,2013-02-03 23:08:00,
2013-02-03 18:13:00,27.0,15.7,29.80,WNW,289,1.0,6.0,62,0.00,,---,0.02,VWS V14.01,2013-02-03 23:13:00,
2013-02-03 18:15:00,25.7,15.6,29.81,WNW,289,0.0,2.0,65,0.00,,---,0.02,VWS V14.01,2013-02-03 23:15:00,
2013-02-03 18:18:00,26.9,15.6,29.80,WNW,289,2.0,4.0,62,0.00,,---,0.02,VWS V14.01,2013-02-03 23:18:00,
2013-02-03 18:23:00,26.8,15.5,29.80,WNW,289,3.0,4.0,62,0.00,,---,0.02,VWS V14.01,2013-02-03 23:23:00,
2013-02-03 18:28:00,26.7,15.8,29.80,WNW,289,0.0,4.0,63,0.00,,---,0.02,VWS V14.01,2013-02-03 23:28:00,
2013-02-03 18:30:00,25.2,15.4,29.81,WNW,289,0.0,0.0,66,0.00,,---,0.02,VWS V14.01,2013-02-03 23:30:00,
2013-02-03 18:33:00,26.6,15.7,29.80,WNW,289,0.0,2.0,63,0.00,,---,0.02,VWS V14.01,2013-02-03 23:33:00,
2013-02-03 18:38:00,26.4,15.5,29.81,WNW,289,0.0,2.0,63,0.00,,---,0.02,VWS V14.01,2013-02-03 23:38:00,
2013-02-03 18:44:00,26.3,15.4,29.81,WNW,289,0.0,2.0,63,0.00,,---,0.02,VWS V14.01,2013-02-03 23:44:00,
2013-02-03 18:45:00,24.7,15.3,29.81,WNW,289,0.0,0.0,67,0.00,,---,0.02,VWS V14.01,2013-02-03 23:45:00,
2013-02-03 18:49:00,26.2,15.7,29.81,WNW,289,0.0,2.0,64,0.00,,---,0.02,VWS V14.01,2013-02-03 23:49:00,
2013-02-03 18:54:00,26.0,15.5,29.81,WNW,289,0.0,2.0,64,0.00,,---,0.02,VWS V14.01,2013-02-03 23:54:00,
2013-02-03 18:59:00,25.9,15.4,29.81,WNW,289,1.0,2.0,64,0.00,,---,0.02,VWS V14.01,2013-02-03 23:59:00,
2013-02-03 19:00:00,24.2,15.2,29.81,WNW,289,0.0,0.0,68,0.00,,---,0.02,VWS V14.01,2013-02-04 00:00:00,
2013-02-03 19:04:00,25.7,15.6,29.81,WNW,289,0.0,0.0,65,0.00,,---,0.02,VWS V14.01,2013-02-04 00:04:00,
2013-02-03 19:09:00,25.7,15.6,29.81,WNW,289,0.0,2.0,65,0.00,,---,0.02,VWS V14.01,2013-02-04 00:09:00,
2013-02-03 19:14:00,25.7,15.6,29.81,WNW,289,0.0,2.0,65,0.00,,---,0.02,VWS V14.01,2013-02-04 00:14:00,
2013-02-03 19:15:00,24.2,15.2,29.81,WNW,289,0.0,0.0,68,0.00,,---,0.02,VWS V14.01,2013-02-04 00:15:00,
2013-02-03 19:19:00,25.6,15.5,29.81,WNW,289,0.0,0.0,65,0.00,,---,0.02,VWS V14.01,2013-02-04 00:19:00,
2013-02-03 19:24:00,25.4,15.3,29.81,WNW,289,0.0,0.0,65,0.00,,---,0.02,VWS V14.01,2013-02-04 00:24:00,
2013-02-03 19:29:00,25.3,15.6,29.81,WNW,289,0.0,0.0,66,0.00,,---,0.02,VWS V14.01,2013-02-04 00:29:00,
2013-02-03 19:30:00,23.8,15.1,29.81,WNW,289,0.0,0.0,69,0.00,,---,0.02,VWS V14.01,2013-02-04 00:30:00,
2013-02-03 19:34:00,25.2,15.4,29.81,WNW,289,0.0,0.0,66,0.00,,---,0.02,VWS V14.01,2013-02-04 00:34:00,
2013-02-03 19:39:00,25.0,15.3,29.81,WNW,289,0.0,0.0,66,0.00,,---,0.02,VWS V14.01,2013-02-04 00:39:00,
2013-02-03 19:44:00,24.8,15.4,29.81,WNW,289,0.0,0.0,67,0.00,,---,0.02,VWS V14.01,2013-02-04 00:44:00,
2013-02-03 19:45:00,23.2,14.9,29.82,WNW,289,0.0,0.0,70,0.00,,---,0.02,VWS V14.01,2013-02-04 00:45:00,
2013-02-03 19:49:00,24.5,15.1,29.81,WNW,289,0.0,0.0,67,0.00,,---,0.02,VWS V14.01,2013-02-04 00:49:00,
2013-02-03 19:54:00,24.4,15.4,29.81,WNW,289,0.0,0.0,68,0.00,,---,0.02,VWS V14.01,2013-02-04 00:54:00,
2013-02-03 19:59:00,24.2,15.2,29.81,WNW,289,0.0,0.0,68,0.00,,---,0.02,VWS V14.01,2013-02-04 00:59:00,
2013-02-03 20:00:00,22.8,15.1,29.81,WNW,289,0.0,0.0,72,0.00,,---,0.02,VWS V14.01,2013-02-04 01:00:00,
2013-02-03 20:04:00,24.2,15.2,29.81,WNW,289,0.0,0.0,68,0.00,,---,0.02,VWS V14.01,2013-02-04 01:04:00,
2013-02-03 20:09:00,24.2,15.2,29.81,WNW,289,0.0,0.0,68,0.00,,---,0.02,VWS V14.01,2013-02-04 01:09:00,
2013-02-03 20:15:00,24.2,15.2,29.81,WNW,289,0.0,0.0,68,0.00,,---,0.02,VWS V14.01,2013-02-04 01:15:00,
2013-02-03 20:20:00,24.1,15.1,29.81,WNW,289,0.0,0.0,68,0.00,,---,0.02,VWS V14.01,2013-02-04 01:20:00,
2013-02-03 20:25:00,24.0,15.0,29.81,WNW,289,0.0,0.0,68,0.00,,---,0.02,VWS V14.01,2013-02-04 01:25:00,
2013-02-03 20:30:00,23.8,15.1,29.81,WNW,289,0.0,0.0,69,0.00,,---,0.02,VWS V14.01,2013-02-04 01:30:00,
2013-02-03 20:35:00,23.6,15.3,29.81,WNW,289,0.0,0.0,70,0.00,,---,0.02,VWS V14.01,2013-02-04 01:35:00,
2013-02-03 20:40:00,23.4,15.1,29.81,WNW,289,0.0,0.0,70,0.00,,---,0.02,VWS V14.01,2013-02-04 01:40:00,
2013-02-03 20:45:00,23.2,14.9,29.82,WNW,289,0.0,0.0,70,0.00,,---,0.02,VWS V14.01,2013-02-04 01:45:00,
2013-02-03 20:50:00,23.0,15.0,29.82,WNW,289,0.0,0.0,71,0.00,,---,0.02,VWS V14.01,2013-02-04 01:50:00,
2013-02-03 20:55:00,22.9,14.9,29.82,WNW,289,0.0,0.0,71,0.00,,---,0.02,VWS V14.01,2013-02-04 01:55:00,
2013-02-03 21:00:00,22.8,15.1,29.81,WNW,289,0.0,0.0,72,0.00,,---,0.02,VWS V14.01,2013-02-04 02:00:00,
2013-02-03 21:05:00,22.8,15.1,29.81,WNW,289,0.0,0.0,72,0.00,,---,0.02,VWS V14.01,2013-02-04 02:05:00,
2013-02-03 21:10:00,22.9,15.6,29.81,WNW,289,0.0,0.0,73,0.00,,---,0.02,VWS V14.01,2013-02-04 02:10:00,
2013-02-03 21:15:00,23.1,15.8,29.81,WNW,289,0.0,0.0,73,0.00,,---,0.02,VWS V14.01,2013-02-04 02:15:00,
2013-02-03 21:20:00,23.2,15.5,29.81,WNW,289,0.0,0.0,72,0.00,,---,0.02,VWS V14.01,2013-02-04 02:20:00,
2013-02-03 21:25:00,23.1,15.4,29.81,WNW,289,0.0,0.0,72,0.00,,---,0.02,VWS V14.01,2013-02-04 02:25:00,
2013-02-03 21:30:00,22.9,15.2,29.81,WNW,289,0.0,0.0,72,0.00,,---,0.02,VWS V14.01,2013-02-04 02:30:00,
2013-02-03 21:35:00,22.9,15.6,29.81,WNW,289,0.0,0.0,73,0.00,,---,0.02,VWS V14.01,2013-02-04 02:35:00,
2013-02-03 21:40:00,22.9,15.6,29.81,WNW,289,0.0,0.0,73,0.00,,---,0.02,VWS V14.01,2013-02-04 02:40:00,
2013-02-03 21:45:00,25.0,16.9,29.81,WNW,289,0.0,2.0,71,0.00,,---,0.02,VWS V14.01,2013-02-04 02:45:00,
2013-02-03 21:46:00,23.2,16.2,29.81,WNW,289,0.0,3.0,74,0.00,,---,0.02,VWS V14.01,2013-02-04 02:46:00,
2013-02-03 21:51:00,23.7,16.3,29.81,WNW,289,0.0,2.0,73,0.00,,---,0.02,VWS V14.01,2013-02-04 02:51:00,
2013-02-03 21:56:00,24.0,16.6,29.81,WNW,289,0.0,2.0,73,0.00,,---,0.02,VWS V14.01,2013-02-04 02:56:00,
2013-02-03 22:00:00,25.1,17.0,29.81,WNW,289,0.0,4.0,71,0.00,,---,0.02,VWS V14.01,2013-02-04 03:00:00,
2013-02-03 22:01:00,24.0,16.6,29.81,WNW,289,0.0,2.0,73,0.00,,---,0.02,VWS V14.01,2013-02-04 03:01:00,
2013-02-03 22:06:00,24.2,16.5,29.81,WNW,289,0.0,0.0,72,0.00,,---,0.02,VWS V14.01,2013-02-04 03:06:00,
2013-02-03 22:11:00,24.2,16.5,29.81,WNW,289,0.0,0.0,72,0.00,,---,0.02,VWS V14.01,2013-02-04 03:11:00,
2013-02-03 22:15:00,25.1,17.0,29.80,WNW,289,2.0,4.0,71,0.00,,---,0.02,VWS V14.01,2013-02-04 03:15:00,
2013-02-03 22:16:00,24.3,16.6,29.81,WNW,289,0.0,0.0,72,0.00,,---,0.02,VWS V14.01,2013-02-04 03:16:00,
2013-02-03 22:21:00,24.4,16.7,29.81,WNW,289,0.0,3.0,72,0.00,,---,0.02,VWS V14.01,2013-02-04 03:21:00,
2013-02-03 22:26:00,24.7,17.0,29.81,WNW,289,0.0,3.0,72,0.00,,---,0.02,VWS V14.01,2013-02-04 03:26:00,
2013-02-03 22:30:00,25.2,17.1,29.80,SW,232,3.0,4.0,71,0.00,,---,0.02,VWS V14.01,2013-02-04 03:30:00,
2013-02-03 22:31:00,24.9,17.2,29.81,WNW,289,0.0,0.0,72,0.00,,---,0.02,VWS V14.01,2013-02-04 03:31:00,
2013-02-03 22:36:00,25.0,16.9,29.81,WNW,289,0.0,2.0,71,0.00,,---,0.02,VWS V14.01,2013-02-04 03:36:00,
2013-02-03 22:41:00,25.0,16.9,29.81,WNW,289,1.0,2.0,71,0.00,,---,0.02,VWS V14.01,2013-02-04 03:41:00,
2013-02-03 22:45:00,25.2,17.1,29.81,West,262,3.0,5.0,71,0.00,,---,0.02,VWS V14.01,2013-02-04 03:45:00,
2013-02-03 22:46:00,25.0,16.9,29.81,WNW,289,1.0,1.0,71,0.00,,---,0.02,VWS V14.01,2013-02-04 03:46:00,
2013-02-03 22:51:00,25.0,17.3,29.81,WNW,289,2.0,3.0,72,0.00,,---,0.02,VWS V14.01,2013-02-04 03:51:00,
2013-02-03 22:56:00,25.0,17.3,29.81,WNW,289,3.0,3.0,72,0.00,,---,0.02,VWS V14.01,2013-02-04 03:56:00,
2013-02-03 23:00:00,25.5,18.1,29.81,SW,233,6.0,10.0,73,0.00,,---,0.02,VWS V14.01,2013-02-04 04:00:00,
2013-02-03 23:01:00,25.1,17.0,29.81,WNW,289,1.0,1.0,71,0.00,,---,0.02,VWS V14.01,2013-02-04 04:01:00,
2013-02-03 23:06:00,25.1,17.0,29.81,WNW,289,0.0,3.0,71,0.00,,---,0.02,VWS V14.01,2013-02-04 04:06:00,
2013-02-03 23:11:00,25.1,17.0,29.81,WNW,289,2.0,4.0,71,0.00,,---,0.02,VWS V14.01,2013-02-04 04:11:00,
2013-02-03 23:15:00,26.0,18.5,29.82,NW,313,5.0,14.0,73,0.00,,---,0.00,VWS V14.01,2013-02-04 04:15:00,
2013-02-03 23:16:00,25.1,17.0,29.81,WNW,289,3.0,3.0,71,0.00,,---,0.02,VWS V14.01,2013-02-04 04:16:00,
2013-02-03 23:21:00,25.2,17.1,29.80,WNW,289,0.0,3.0,71,0.00,,---,0.02,VWS V14.01,2013-02-04 04:21:00,
2013-02-03 23:26:00,25.2,17.1,29.80,WNW,289,1.0,3.0,71,0.00,,---,0.02,VWS V14.01,2013-02-04 04:26:00,
2013-02-03 23:30:00,26.4,18.6,29.82,WNW,289,10.0,17.0,72,0.00,,---,0.00,VWS V14.01,2013-02-04 04:30:00,
2013-02-03 23:31:00,25.2,17.1,29.80,SW,232,1.0,3.0,71,0.00,,---,0.02,VWS V14.01,2013-02-04 04:31:00,
2013-02-03 23:37:00,25.2,17.1,29.81,WSW,256,4.0,5.0,71,0.00,,---,0.02,VWS V14.01,2013-02-04 04:37:00,
2013-02-03 23:42:00,25.2,17.1,29.81,West,259,4.0,5.0,71,0.00,,---,0.02,VWS V14.01,2013-02-04 04:42:00,
2013-02-03 23:45:00,26.1,17.7,29.82,NW,306,10.0,18.0,70,0.00,,---,0.00,VWS V14.01,2013-02-04 04:45:00,
2013-02-03 23:47:00,25.2,17.1,29.81,West,260,3.0,4.0,71,0.00,,---,0.02,VWS V14.01,2013-02-04 04:47:00,
2013-02-03 23:52:00,25.2,17.5,29.81,West,268,1.0,5.0,72,0.00,,---,0.02,VWS V14.01,2013-02-04 04:52:00,
2013-02-03 23:57:00,25.3,17.5,29.81,West,273,2.0,6.0,72,0.00,,---,0.02,VWS V14.01,2013-02-04 04:57:00,